TimeEST,TemperatureF,Dew PointF,Humidity,Sea Level PressureIn,VisibilityMPH,Wind Direction,Wind SpeedMPH,Gust SpeedMPH,PrecipitationIn,Events,Conditions,WindDirDegrees,DateUTC
12:15 AM,35.6,32.0,87,30.01,10.0,NNE,6.9,-,N/A,,Overcast,20,2012-12-16 05:15:00
1:15 AM,37.4,32.0,81,29.99,10.0,NE,3.5,-,N/A,,Overcast,40,2012-12-16 06:15:00
1:35 AM,37.4,32.0,81,30.01,10.0,North,3.5,-,N/A,,Overcast,10,2012-12-16 06:35:00
1:55 AM,37.4,32.0,81,30.01,7.0,Calm,Calm,-,N/A,Rain,Light Rain,0,2012-12-16 06:55:00
2:15 AM,37.4,32.0,81,30.03,10.0,Calm,Calm,-,N/A,Rain,Rain,0,2012-12-16 07:15:00
2:35 AM,35.6,32.0,87,30.03,4.0,Calm,Calm,-,0.02,Rain,Light Rain,0,2012-12-16 07:35:00
2:55 AM,35.6,33.8,93,30.03,7.0,North,4.6,-,0.02,,Drizzle,10,2012-12-16 07:55:00
3:15 AM,35.6,33.8,93,30.02,3.0,NE,3.5,-,N/A,,Drizzle,50,2012-12-16 08:15:00
3:55 AM,35.6,33.8,93,30.02,4.0,NNE,3.5,-,0.01,,Overcast,30,2012-12-16 08:55:00
4:15 AM,35.6,33.8,93,30.01,4.0,NNE,3.5,-,N/A,,Overcast,30,2012-12-16 09:15:00
4:35 AM,35.6,33.8,93,30.00,4.0,Calm,Calm,-,N/A,,Overcast,0,2012-12-16 09:35:00
4:55 AM,35.6,33.8,93,30.00,3.0,Calm,Calm,-,N/A,,Overcast,0,2012-12-16 09:55:00
5:15 AM,35.6,33.8,93,30.00,3.0,North,3.5,-,N/A,,Overcast,10,2012-12-16 10:15:00
5:35 AM,35.6,33.8,93,29.99,4.0,Calm,Calm,-,N/A,,Overcast,0,2012-12-16 10:35:00
5:55 AM,35.6,33.8,93,29.98,2.5,NE,3.5,-,N/A,,Overcast,40,2012-12-16 10:55:00
6:15 AM,35.6,33.8,93,29.97,3.0,Calm,Calm,-,N/A,,Overcast,0,2012-12-16 11:15:00
6:35 AM,33.8,33.8,100,29.97,2.5,Calm,Calm,-,N/A,,Mostly Cloudy,0,2012-12-16 11:35:00
6:55 AM,33.8,33.8,100,29.98,2.5,Calm,Calm,-,N/A,,Overcast,0,2012-12-16 11:55:00
7:15 AM,33.8,33.8,100,29.98,2.5,ENE,3.5,-,N/A,,Mostly Cloudy,60,2012-12-16 12:15:00
7:35 AM,33.8,33.8,100,29.98,2.5,Calm,Calm,-,N/A,,Mostly Cloudy,0,2012-12-16 12:35:00
8:15 AM,35.6,33.8,93,29.97,3.0,Calm,Calm,-,N/A,,Overcast,0,2012-12-16 13:15:00
8:35 AM,35.6,33.8,93,29.98,3.0,North,3.5,-,N/A,,Overcast,10,2012-12-16 13:35:00
8:55 AM,35.6,33.8,93,29.97,2.5,NNE,3.5,-,N/A,,Overcast,30,2012-12-16 13:55:00
9:15 AM,35.6,33.8,93,29.97,3.0,Calm,Calm,-,N/A,,Overcast,0,2012-12-16 14:15:00
9:55 AM,35.6,35.6,100,29.96,4.0,Calm,Calm,-,N/A,,Overcast,0,2012-12-16 14:55:00
10:15 AM,37.4,35.6,93,29.97,4.0,Calm,Calm,-,N/A,,Overcast,0,2012-12-16 15:15:00
10:35 AM,37.4,35.6,93,29.96,4.0,Calm,Calm,-,N/A,,Mostly Cloudy,0,2012-12-16 15:35:00
10:55 AM,37.4,35.6,93,29.95,4.0,NNE,3.5,-,N/A,,Clear,20,2012-12-16 15:55:00
11:15 AM,37.4,35.6,93,29.96,4.0,North,5.8,-,N/A,,Mostly Cloudy,0,2012-12-16 16:15:00
11:35 AM,37.4,35.6,93,29.94,5.0,NNE,4.6,-,N/A,,Overcast,20,2012-12-16 16:35:00
11:55 AM,37.4,35.6,93,29.94,5.0,NNE,5.8,-,N/A,,Overcast,30,2012-12-16 16:55:00
12:15 PM,37.4,35.6,93,29.93,5.0,NNE,4.6,-,N/A,,Overcast,30,2012-12-16 17:15:00
12:35 PM,39.2,37.4,93,29.92,5.0,NNE,3.5,-,N/A,,Overcast,20,2012-12-16 17:35:00
12:55 PM,41.0,37.4,87,29.89,5.0,North,5.8,-,N/A,,Overcast,10,2012-12-16 17:55:00
1:15 PM,41.0,37.4,87,29.89,7.0,NNE,4.6,-,N/A,,Overcast,20,2012-12-16 18:15:00
1:35 PM,41.0,37.4,87,29.89,7.0,NE,3.5,-,N/A,,Overcast,50,2012-12-16 18:35:00
1:55 PM,41.0,37.4,87,29.89,7.0,North,5.8,-,N/A,,Overcast,10,2012-12-16 18:55:00
2:15 PM,41.0,37.4,87,29.88,7.0,Calm,Calm,-,N/A,,Overcast,0,2012-12-16 19:15:00
2:35 PM,41.0,37.4,87,29.88,7.0,Calm,Calm,-,N/A,,Overcast,0,2012-12-16 19:35:00
2:55 PM,41.0,37.4,87,29.88,7.0,Calm,Calm,-,N/A,,Overcast,0,2012-12-16 19:55:00
3:15 PM,41.0,37.4,87,29.87,7.0,Calm,Calm,-,N/A,,Overcast,0,2012-12-16 20:15:00
3:35 PM,41.0,37.4,87,29.86,7.0,Calm,Calm,-,N/A,,Overcast,0,2012-12-16 20:35:00
3:55 PM,41.0,37.4,87,29.88,7.0,Calm,Calm,-,N/A,,Overcast,0,2012-12-16 20:55:00
4:15 PM,41.0,37.4,87,29.86,7.0,Calm,Calm,-,N/A,,Overcast,0,2012-12-16 21:15:00
4:35 PM,41.0,37.4,87,29.85,7.0,Calm,Calm,-,N/A,,Overcast,0,2012-12-16 21:35:00
4:55 PM,41.0,37.4,87,29.84,7.0,North,4.6,-,N/A,,Scattered Clouds,10,2012-12-16 21:55:00
5:15 PM,41.0,37.4,87,29.84,10.0,NNE,3.5,-,N/A,,Mostly Cloudy,30,2012-12-16 22:15:00
5:35 PM,41.0,37.4,87,29.84,7.0,East,4.6,-,N/A,,Overcast,90,2012-12-16 22:35:00
5:55 PM,41.0,37.4,87,29.82,7.0,NNW,3.5,-,N/A,,Overcast,330,2012-12-16 22:55:00
6:15 PM,41.0,37.4,87,29.84,7.0,NNW,4.6,-,N/A,,Overcast,330,2012-12-16 23:15:00
6:35 PM,41.0,37.4,87,29.82,7.0,North,4.6,-,N/A,,Mostly Cloudy,0,2012-12-16 23:35:00
6:55 PM,41.0,37.4,87,29.83,7.0,NNE,3.5,-,N/A,,Overcast,30,2012-12-16 23:55:00
7:15 PM,41.0,37.4,87,29.84,7.0,ENE,4.6,-,N/A,,Overcast,70,2012-12-17 00:15:00
7:35 PM,41.0,37.4,87,29.84,7.0,Calm,Calm,-,N/A,,Overcast,0,2012-12-17 00:35:00
7:55 PM,41.0,39.2,93,29.85,10.0,NNW,8.1,-,N/A,,Overcast,330,2012-12-17 00:55:00
8:15 PM,41.0,37.4,87,29.84,10.0,SE,4.6,-,N/A,,Overcast,140,2012-12-17 01:15:00
8:35 PM,41.0,37.4,87,29.84,7.0,Calm,Calm,-,N/A,,Overcast,0,2012-12-17 01:35:00
8:55 PM,41.0,37.4,87,29.83,7.0,Calm,Calm,-,N/A,,Overcast,0,2012-12-17 01:55:00
9:15 PM,41.0,37.4,87,29.82,7.0,NE,3.5,-,N/A,,Overcast,40,2012-12-17 02:15:00
9:35 PM,41.0,37.4,87,29.84,7.0,Calm,Calm,-,N/A,,Overcast,0,2012-12-17 02:35:00
9:55 PM,41.0,37.4,87,29.84,7.0,Calm,Calm,-,N/A,,Overcast,0,2012-12-17 02:55:00
10:15 PM,39.2,37.4,93,29.86,5.0,North,3.5,-,N/A,,Overcast,10,2012-12-17 03:15:00
10:35 PM,41.0,37.4,87,29.86,5.0,East,3.5,-,N/A,,Overcast,80,2012-12-17 03:35:00
10:55 PM,41.0,37.4,87,29.87,7.0,NNW,4.6,-,N/A,,Light Drizzle,340,2012-12-17 03:55:00
11:15 PM,41.0,37.4,87,29.86,7.0,Calm,Calm,-,N/A,,Light Drizzle,0,2012-12-17 04:15:00
11:35 PM,41.0,37.4,87,29.85,7.0,ESE,4.6,-,N/A,,Light Drizzle,120,2012-12-17 04:35:00
11:55 PM,41.0,37.4,87,29.83,5.0,Calm,Calm,-,N/A,,Light Drizzle,0,2012-12-17 04:55:00